Skip Page Navigation
NASA JPL Caltech
NASA Logo - Jet Propulsion Laboratory + View the NASA Portal
+ Near-Earth Object (NEO) Program
Search JPL
JPL Home Earth Solar System Stars & Galaxies Technology
JPL Solar System Dynamics
BODIES ORBITS EPHEMERIDES TOOLS PHYSICAL DATA DISCOVERY FAQ SITE MAP
JPL Small-Body Database Browser
Search: [ help ]  
(2005 GY8)
Classification: Apollo [NEO, PHA]          SPK-ID: 3275673
Ephemeris | Orbit Diagram | Orbital Elements | Physical Parameters | Close-Approach Data ]

[ hide orbit diagram ]
Orbit Diagram
Note: Make sure you have Java enabled on your browser to see the applet. This applet is provided as a 3D orbit visualization tool. The applet was implemented using 2-body methods, and hence should not be used for determining accurate long-term trajectories (over several years or decades) or planetary encounter circumstances. For accurate long-term ephemerides, please instead use our Horizons system.
Orbit Viewer

Additional Notes: the orbits shown in the applet are color coded. The planets are white lines, and the asteroid/comet is a blue line. The bright white line indicates the portion of the orbit that is above the ecliptic plane, and the darker portion is below the ecliptic plane. Likewise for the asteroid/comet orbit, the light blue indicates the portion above the ecliptic plane, and the dark blue the portion below the ecliptic plane.

Orbit Viewer applet originally written and kindly provided by Osamu Ajiki (AstroArts), and further modified by Ron Baalke (JPL).


Orbital Elements at Epoch 2456400.5 (2013-Apr-18.0) TDB
Reference: JPL 10 (heliocentric ecliptic J2000)
 Element Value Uncertainty (1-sigma)   Units 
e .6733186920825825 1.0859e-06  
a 2.047285093205935 2.3295e-07 AU
q .6688097719283468 2.2945e-06 AU
i 2.827360488552825 3.2319e-05 deg
node 179.8077245146127 0.00017536 deg
peri 103.3253573261964 0.00038434 deg
M 240.5687840018213 0.00010449 deg
tp 2456755.461512775016
(2014-Apr-07.96151278)
0.0003711 JED
period 1069.955987059151
2.93
0.00018261
5e-07
d
yr
n .3364624380386761 5.7425e-08 deg/d
Q 3.425760414483523 3.8979e-07 AU
  Orbit Determination Parameters
   # obs. used (total)      110  
   data-arc span      1102 days (3.02 yr)  
   first obs. used      2005-04-02  
   last obs. used      2008-04-08  
   planetary ephem.      DE405  
   SB-pert. ephem.      SB405-CPV-2  
   condition code      1  
   fit RMS      .5588  
   data source      ORB  
   producer      Otto Matic  
   solution date      2011-Sep-14 20:01:26  

Additional Information
 Earth MOID = .00290109 AU 
 T_jup = 3.468 
[ show covariance matrix ]

Ephemeris | Orbit Diagram | Orbital Elements | Physical Parameters | Close-Approach Data ]

Physical Parameter Table
Parameter Symbol Value Units Sigma Reference Notes
absolute magnitude H 21.792 mag .61671 10 autocmod 2.5a

[ show close-approach data ]
Alternate Designations
 2005 GY8 = 2008 FG5 
Ephemeris | Orbit Diagram | Orbital Elements | Physical Parameters | Close-Approach Data ]
ABOUT SSD CREDITS/AWARDS PRIVACY/COPYRIGHT GLOSSARY LINKS
FirstGov 2013-May-25 18:28 UT
(server date/time)  
NASA Home Page
Site Manager:   Donald K. Yeomans
Webmaster  Alan B. Chamberlin